Flag for Germany Weather past 2 weeks in Ettlingen, Baden-Württemberg, Germany

Now
72 °F

Passing clouds.


Feels Like: 74 °F
Forecast: 58 / 80 °F
Wind: 6 mph from Southwest

Location: Karlsruhe - Baden Wurttemberg

Current Time: Sep 18, 2014 at 4:00:29 PM

Latest Report: Sep 18, 2014 at 3:20 PM


Visibility: N/A

Pressure: 29.89 "Hg

Humidity: 73%

Dew point: 63 °F

Location of EttlingenLocation

Historic Weather in Ettlingen — Graph

°F

Ettlingen temperature yesterday

Maximum temperature yesterday: 77 °F (at 4:20 PM)
Minimum temperature yesterday: 55 °F (at 4:50 AM)
Average temperature yesterday: 65 °F

Past Weeks' High & Low Weather Summary

 TemperatureHumidityPressure
High81 °F (Sep 6, 5:20 PM)94% (Sep 4, 11:20 PM)30.18 "Hg (Sep 4, 11:20 PM)
Low50 °F (Sep 11, 4:50 AM)42% (Sep 6, 5:20 PM)29.83 "Hg (Sep 17, 4:20 PM)
Average64 °F77%30.00 "Hg
* Reported Sep 3 2:20 PM — Sep 18 2:50 PM, Ettlingen, Weather by CustomWeather, © 2014

Note: Actual official high and low records may vary slightly from our data, if they occured in-between our weather recording intervals... More about our weather records

Advertising

Ettlingen weather history for previous 24 hours

 ConditionsComfort  
Time TempWeatherWind HumidityBarometerVisibility
2:50 PM
Sep 18
72 °FPassing clouds.5 mph73%29.89 "HgN/A
2:20 PM72 °FPassing clouds.6 mph69%29.89 "HgN/A
1:50 PM72 °FSunny.2 mph69%29.86 "Hg10 mi
1:20 PM72 °FSunny.2 mph73%29.86 "Hg10 mi
12:50 PM72 °FSunny.3 mph69%29.86 "Hg10 mi
12:20 PM70 °FPartly sunny.2 mph73%29.89 "HgN/A
11:50 AM68 °FScattered clouds.3 mph78%29.89 "HgN/A
11:20 AM68 °FSunny.5 mph78%29.89 "Hg10 mi
10:50 AM68 °FSunny.2 mph78%29.89 "Hg10 mi
10:20 AM66 °FSunny.3 mph83%29.89 "Hg10 mi
9:50 AM66 °FSunny.2 mph83%29.89 "Hg10 mi
9:20 AM64 °FSunny.3 mph83%29.89 "Hg10 mi
8:50 AM64 °FSunny.No wind88%29.89 "Hg10 mi
8:20 AM61 °FSunny.No wind94%29.89 "Hg10 mi
7:50 AM59 °FClear.1 mph94%29.89 "Hg10 mi
7:20 AM59 °FClear.1 mph94%29.86 "Hg10 mi
6:50 AM59 °FClear.1 mph94%29.86 "Hg10 mi
6:20 AM61 °FClear.1 mph88%29.86 "Hg10 mi
5:50 AM59 °FClear.1 mph94%29.86 "Hg10 mi
5:20 AM61 °FClear.2 mph88%29.86 "Hg10 mi
4:50 AM61 °FClear.3 mph88%29.86 "Hg10 mi
11:50 PM
Sep 17
64 °FClear.2 mph83%29.86 "Hg10 mi
11:20 PM66 °FClear.2 mph78%29.86 "Hg10 mi
10:50 PM66 °FClear.2 mph78%29.86 "Hg10 mi
10:20 PM66 °FClear.6 mph78%29.83 "Hg10 mi
9:50 PM66 °FClear.6 mph78%29.83 "Hg10 mi
9:20 PM66 °FClear.3 mph78%29.83 "Hg10 mi
8:50 PM66 °FClear.5 mph78%29.83 "Hg10 mi
8:20 PM68 °FSunny.5 mph73%29.83 "Hg10 mi
7:50 PM70 °FSunny.6 mph73%29.83 "Hg10 mi
7:20 PM72 °FSunny.6 mph65%29.83 "Hg10 mi
6:50 PM73 °FSunny.5 mph65%29.83 "Hg10 mi
6:20 PM75 °FSunny.6 mph57%29.83 "Hg10 mi
5:50 PM75 °FSunny.6 mph61%29.83 "Hg10 mi
5:20 PM75 °FSunny.7 mph57%29.83 "Hg10 mi
4:50 PM77 °FSunny.8 mph54%29.83 "Hg10 mi
4:20 PM77 °FPassing clouds.8 mph57%29.83 "HgN/A
Weather by CustomWeather, © 2014

See weather overviewHow to use our weather pages